Location: Bermeries
(50.2863°N, 3.7551°E)
Time: 12:50:27
(UTC+00:00)

IDEFIX/ARIANE 42P - Pass Details

Date: 23 May 2024
Orbit: 783 x 799 km, 98.5° (Epoch: 16 June)

Event Time Altitude Azimuth Distance (km) Brightness Sun altitude
Rises 02:57:02 0° 7° (N) 3,318 6.7 -7.0°
Reaches altitude 10° 02:59:41 10° 355° (N) 2,384 5.7 -6.7°
Maximum altitude 03:03:59 26° 300° (WNW) 1,524 3.9 -6.2°
Drops below altitude 10° 03:08:16 10° 245° (WSW) 2,374 4.4 -5.7°
Enters shadow 03:09:16 - 240° (WSW) 2,709 4.7 -5.6°
